Triuchirapalli, India

7:08 PM IST on September 19, 2019 (GMT +0530)
Tiruchirappalli

Weather History for VOTR - July, 2019

Change the Weather History Date:

Wednesday, July 17, 2019

  Actual Average Record
Temperature  
Mean Temperature 91 °F -  
Max Temperature 101 °F 92 °F 101 °F (2014)
Min Temperature 81 °F 80 °F 75 °F (2016)
Cooling Degree Days 26    
Growing Degree Days 41 (Base 50)    
Moisture  
Dew Point 70 °F    
Average Humidity 49    
Maximum Humidity 84    
Minimum Humidity 24    
Precipitation  
Precipitation 0.12 in - - ()
Sea Level Pressure  
Sea Level Pressure 29.66 in    
Wind  
Wind Speed 10 mph ()    
Max Wind Speed 15 mph    
Max Gust Speed 24 mph    
Visibility 3.8 miles    
Events Rain    
Averages and records for this station are not official NWS values.
T = Trace of Precipitation, MM = Missing Value Source: Averaged Metar Reports

Daily Weather History Graph

Daily Weather History Graph

Search for Another Location

Airport or City:

Astronomy

Jul. 17, 2019 Rise Set
Actual Time 6:00 AM IST 6:41 PM IST
Civil Twilight 5:37 AM IST 7:04 PM IST
Nautical Twilight 5:11 AM IST 7:31 PM IST
Astronomical Twilight 4:44 AM IST 7:58 PM IST
Moon 7:11 PM IST (7/17) 6:10 AM IST (7/17)
Length of Visible Light 13h 26m
Length of Day
12h 41m
Full, 100% of the Moon is Illuminated
Jul 17
Full
Jul 25
Last Quarter
Aug 1
New
Aug 7
First Quarter
Aug 15
Full

Hourly Weather History & Observations

Time (IST) Temp. Heat Index Dew Point Humidity Pressure Visibility Wind Dir Wind Speed Gust Speed Precip Events Conditions
12:00 AM 87.8 °F 93.8 °F 71.6 °F 58% 29.71 in 3.7 mi WSW 8.1 mph - N/A   Scattered Clouds
12:30 AM 87.8 °F 93.8 °F 71.6 °F 58% 29.71 in 3.7 mi West 12.7 mph - N/A   Scattered Clouds
1:00 AM 87.8 °F 93.8 °F 71.6 °F 58% 29.71 in 3.7 mi West 10.4 mph - N/A   Scattered Clouds
1:30 AM 87.8 °F 93.8 °F 71.6 °F 58% 29.71 in 3.7 mi West 11.5 mph - N/A   Scattered Clouds
2:00 AM 86.0 °F 91.8 °F 71.6 °F 62% 29.68 in 3.7 mi West 11.5 mph - N/A   Scattered Clouds
2:30 AM 85 °F - 68 °F 48% 29.69 in 2 mi West 11.5 mph - -   Haze
2:30 AM 86.0 °F 89.4 °F 68.0 °F 55% 29.68 in 3.7 mi West 11.5 mph - N/A   Scattered Clouds
3:00 AM 84.2 °F 88.4 °F 69.8 °F 62% 29.68 in 3.7 mi West 9.2 mph - N/A   Scattered Clouds
3:30 AM 84.2 °F 88.4 °F 69.8 °F 62% 29.65 in 3.7 mi West 9.2 mph - N/A   Scattered Clouds
4:00 AM 84.2 °F 88.4 °F 69.8 °F 62% 29.65 in 3.7 mi West 9.2 mph - N/A   Scattered Clouds
4:30 AM 84.2 °F 88.4 °F 69.8 °F 62% 29.65 in 3.7 mi West 9.2 mph - N/A   Scattered Clouds
5:00 AM 84.2 °F 88.4 °F 69.8 °F 62% 29.65 in 3.7 mi West 9.2 mph - N/A   Scattered Clouds
5:30 AM 83 °F - 70 °F 56% 29.67 in 2 mi WNW 11.5 mph - -   Haze
6:30 AM 82.4 °F 86.3 °F 69.8 °F 66% 29.68 in 3.7 mi West 11.5 mph - N/A   Scattered Clouds
7:00 AM 84.2 °F 88.4 °F 69.8 °F 62% 29.68 in 3.7 mi West 11.5 mph - N/A   Scattered Clouds
7:30 AM 84.2 °F 88.4 °F 69.8 °F 62% 29.71 in 3.7 mi WNW 10.4 mph - N/A   Scattered Clouds
8:00 AM 84.2 °F 88.4 °F 69.8 °F 62% 29.71 in 3.7 mi West 13.8 mph - N/A   Scattered Clouds
8:30 AM 87 °F - 70 °F 48% 29.71 in 2 mi West 12.7 mph - -   Haze
8:30 AM 86.0 °F 90.4 °F 69.8 °F 58% 29.71 in 3.7 mi West 12.7 mph - N/A   Scattered Clouds
9:00 AM 87.8 °F 92.6 °F 69.8 °F 55% 29.71 in 3.7 mi West 11.5 mph 23.0 mph N/A   Scattered Clouds
9:30 AM 89.6 °F 94.7 °F 69.8 °F 52% 29.71 in 3.7 mi WNW 10.4 mph 21.9 mph N/A   Partly Cloudy
10:00 AM 91.4 °F 96.8 °F 69.8 °F 49% 29.71 in 3.7 mi West 12.7 mph 24.2 mph N/A   Partly Cloudy
10:30 AM 93.2 °F 98.8 °F 69.8 °F 46% 29.71 in 3.7 mi WNW 11.5 mph 23.0 mph N/A   Partly Cloudy
11:00 AM 95.0 °F 99.5 °F 68.0 °F 41% 29.71 in 5.0 mi West 15.0 mph - N/A   Partly Cloudy
11:30 AM 96 °F - 68 °F 31% 29.69 in 2 mi WNW 11.5 mph - -   Haze
11:30 AM 95.0 °F 99.5 °F 68.0 °F 41% 29.68 in 5.0 mi WNW 11.5 mph 23.0 mph N/A   Partly Cloudy
12:00 PM 96.8 °F 101.8 °F 68.0 °F 39% 29.68 in 5.0 mi West 10.4 mph 21.9 mph N/A   Partly Cloudy
12:30 PM 96.8 °F 101.8 °F 68.0 °F 39% 29.68 in 5.0 mi WNW 11.5 mph - N/A   Partly Cloudy
1:00 PM 98.6 °F 104.1 °F 68.0 °F 37% 29.65 in 5.0 mi WNW 12.7 mph - N/A   Partly Cloudy
1:30 PM 100.4 °F 106.3 °F 68.0 °F 35% 29.65 in 5.0 mi WNW 9.2 mph 20.7 mph N/A   Partly Cloudy
2:00 PM 100.4 °F 106.3 °F 68.0 °F 35% 29.62 in 5.0 mi NW 9.2 mph 20.7 mph N/A   Partly Cloudy
2:30 PM 101 °F - 67 °F 24% 29.60 in 2 mi NW 13.8 mph - -   Haze
2:30 PM 100.4 °F 104.9 °F 66.2 °F 33% 29.62 in 5.0 mi NW 9.2 mph 20.7 mph N/A   Scattered Clouds
3:00 PM 100.4 °F 104.9 °F 66.2 °F 33% 29.59 in 5.0 mi WNW 12.7 mph - N/A   Partly Cloudy
3:30 PM 100.4 °F 104.9 °F 66.2 °F 33% 29.59 in 5.0 mi NW 10.4 mph - N/A   Partly Cloudy
4:00 PM 100.4 °F 104.9 °F 66.2 °F 33% 29.56 in 5.0 mi NW 9.2 mph - N/A   Partly Cloudy
4:30 PM 100.4 °F 104.9 °F 66.2 °F 33% 29.56 in 5.0 mi NW 11.5 mph - N/A   Partly Cloudy
5:00 PM 98.6 °F 102.8 °F 66.2 °F 35% 29.56 in 5.0 mi WNW 11.5 mph - N/A   Partly Cloudy
5:30 PM 100 °F - 67 °F 25% 29.57 in 2 mi WNW 9.2 mph - -   Haze
5:30 PM 100.4 °F 106.3 °F 68.0 °F 35% 29.56 in 5.0 mi WNW 9.2 mph - N/A   Partly Cloudy
6:00 PM 98.6 °F 104.1 °F 68.0 °F 37% 29.56 in 3.7 mi WNW 9.2 mph - N/A   Partly Cloudy
6:30 PM 96.8 °F 101.8 °F 68.0 °F 39% 29.59 in 3.7 mi WNW 11.5 mph - N/A   Partly Cloudy
7:00 PM 95.0 °F 101.3 °F 69.8 °F 44% 29.59 in 3.7 mi NNW 9.2 mph - N/A   Partly Cloudy
7:30 PM 95.0 °F 101.3 °F 69.8 °F 44% 29.59 in 3.7 mi NE 11.5 mph - N/A   Partly Cloudy
8:00 PM 91.4 °F 96.8 °F 69.8 °F 49% 29.62 in 3.7 mi East 11.5 mph - N/A   Partly Cloudy
8:30 PM 91 °F - 71 °F 43% 29.65 in 2 mi SSE 6.9 mph - -   Partly Cloudy
8:30 PM 91.4 °F 96.8 °F 69.8 °F 49% 29.65 in 3.7 mi SSE 6.9 mph - N/A   Partly Cloudy
9:00 PM 89.6 °F 94.7 °F 69.8 °F 52% 29.68 in 3.7 mi SE 9.2 mph - N/A Rain Light Rain
9:30 PM 89.6 °F 94.7 °F 69.8 °F 52% 29.68 in 3.7 mi SE 9.2 mph - N/A   Partly Cloudy
10:00 PM 87.8 °F 95.6 °F 73.4 °F 62% 29.68 in 3.7 mi SSE 4.6 mph - N/A   Partly Cloudy
10:30 PM 87.8 °F 95.6 °F 73.4 °F 62% 29.71 in 3.7 mi SSE 3.5 mph - N/A   Partly Cloudy
11:00 PM 86.0 °F 95.1 °F 75.2 °F 70% 29.71 in 3.7 mi East 4.6 mph - N/A   Light Drizzle
11:30 PM 83 °F - 72 °F 63% 29.71 in 2 mi SE 4.6 mph - - Rain Light Drizzle
11:30 PM 84.2 °F 96.1 °F 78.8 °F 84% 29.71 in 3.1 mi SE 4.6 mph - N/A   Drizzle